TimePST,TemperatureF,Dew PointF,Humidity,Sea Level PressureIn,VisibilityMPH,Wind Direction,Wind SpeedMPH,Gust SpeedMPH,PrecipitationIn,Events,Conditions,WindDirDegrees,DateUTC
12:51 AM,48.0,37.9,68,30.11,10.0,Calm,Calm,-,N/A,,Scattered Clouds,0,2013-12-07 08:51:00
1:51 AM,48.0,37.9,68,30.11,10.0,North,3.5,-,N/A,,Scattered Clouds,350,2013-12-07 09:51:00
2:51 AM,46.9,37.9,71,30.09,10.0,Calm,Calm,-,N/A,,Scattered Clouds,0,2013-12-07 10:51:00
3:51 AM,46.0,37.0,71,30.08,10.0,NNW,3.5,-,N/A,,Clear,340,2013-12-07 11:51:00
4:51 AM,45.0,37.9,76,30.08,10.0,Calm,Calm,-,N/A,,Overcast,0,2013-12-07 12:51:00
5:51 AM,48.9,37.9,66,30.09,10.0,Calm,Calm,-,N/A,,Overcast,0,2013-12-07 13:51:00
6:51 AM,48.9,39.9,71,30.09,10.0,ENE,4.6,-,0.00,,Overcast,70,2013-12-07 14:51:00
7:51 AM,48.9,41.0,74,30.09,10.0,East,3.5,-,0.00,Rain,Light Rain,80,2013-12-07 15:51:00
8:51 AM,48.0,43.0,83,30.10,3.0,East,5.8,-,N/A,Rain,Rain,100,2013-12-07 16:51:00
9:43 AM,48.2,44.6,87,30.10,3.0,NNE,5.8,-,N/A,Rain,Light Rain,30,2013-12-07 17:43:00
9:51 AM,48.0,44.1,86,30.10,3.0,NE,5.8,-,N/A,Rain,Light Rain,40,2013-12-07 17:51:00
9:59 AM,48.2,44.6,87,30.10,2.5,ENE,4.6,-,N/A,Rain,Light Rain,70,2013-12-07 17:59:00
10:01 AM,48.2,44.6,87,30.10,2.5,Variable,5.8,-,N/A,Rain,Light Rain,0,2013-12-07 18:01:00
10:15 AM,48.2,44.6,87,30.10,2.5,ENE,5.8,-,N/A,Rain,Light Rain,60,2013-12-07 18:15:00
10:51 AM,48.0,45.0,89,30.09,5.0,NNE,5.8,-,N/A,Rain,Light Rain,30,2013-12-07 18:51:00
11:25 AM,48.2,46.4,93,30.07,5.0,Calm,Calm,-,N/A,Rain,Light Rain,0,2013-12-07 19:25:00
11:51 AM,51.1,46.9,86,30.06,8.0,Variable,3.5,-,N/A,,Overcast,0,2013-12-07 19:51:00
12:13 PM,53.6,46.4,77,30.04,9.0,Calm,Calm,-,N/A,,Scattered Clouds,0,2013-12-07 20:13:00
12:51 PM,54.0,48.0,80,30.01,10.0,SSW,6.9,-,N/A,,Overcast,210,2013-12-07 20:51:00
1:51 PM,55.0,46.0,72,29.99,10.0,WSW,12.7,20.7,N/A,,Mostly Cloudy,250,2013-12-07 21:51:00
2:11 PM,55.4,46.4,72,29.99,10.0,West,5.8,18.4,N/A,,Mostly Cloudy,260,2013-12-07 22:11:00
2:51 PM,57.9,39.0,49,29.99,10.0,WSW,11.5,18.4,N/A,,Partly Cloudy,250,2013-12-07 22:51:00
3:51 PM,57.0,36.0,45,30.00,10.0,NW,6.9,17.3,N/A,,Clear,310,2013-12-07 23:51:00
4:51 PM,55.0,35.1,47,30.00,10.0,WNW,5.8,-,N/A,,Clear,300,2013-12-08 00:51:00
5:51 PM,53.1,35.1,50,30.03,10.0,NW,3.5,-,N/A,,Clear,320,2013-12-08 01:51:00
6:51 PM,51.1,28.0,41,30.06,10.0,Variable,5.8,-,N/A,,Clear,0,2013-12-08 02:51:00
7:51 PM,50.0,25.0,38,30.07,10.0,Variable,5.8,-,N/A,,Clear,0,2013-12-08 03:51:00
8:51 PM,48.9,24.1,38,30.08,10.0,North,5.8,-,N/A,,Clear,350,2013-12-08 04:51:00
9:51 PM,48.9,23.0,36,30.08,10.0,North,10.4,18.4,N/A,,Clear,360,2013-12-08 05:51:00
10:51 PM,48.0,21.9,36,30.11,10.0,NNW,6.9,-,N/A,,Clear,340,2013-12-08 06:51:00
11:51 PM,46.9,21.9,37,30.11,10.0,NNW,5.8,-,N/A,,Clear,330,2013-12-08 07:51:00